伽利略0211星导航星座 (GSAT0211 (GALILEO 14))

导读 | 豆包AI

GALILEO 14 (26B)是欧洲航天局(ESA)主导的伽利略全球卫星导航系统的组网卫星,于2016年5月24日发射入轨。作为伽利略系统早期部署的导航卫星之一,它为欧洲及全球用户提供高精度定位、导航与授时服务,是欧盟构建自主卫星导航体系、实现太空战略主权的重要组成部分,支撑着全球民用导航领域的多元化服务。

Basic Information
目录编号:
41549
目录名称:
GALILEO 14 (26B)
国际标识:
2016-030A
轨道中心:
EARTH
卫星名称:
伽利略0211星
卫星全名:
伽利略0211星导航星座 (GSAT0211 (GALILEO 14))
卫星状态:
在轨 (已飞行3581 天)
发射日期:
2016-05-24 UTC
国别 :
(ESA)
星等 :
--
Orbit Information
数据来源 国际轨道数据 AOE轨道数据
星历时间 2026-03-12T08:14:31+0800
2天前
查看轨道信息
2026-03-12T07:00:00+0800
2天前
查看轨道信息
半长轴 29600.332km 29600.297km
偏心率 0.0003471 0.0003488
轨道倾角 55.129° 55.129°
近地点辐角 23.761° 24.848°
升交点赤经 224.364° 224.366°
平近点角 336.214° 303.366°
近地点 23211.92km 23211.835km
远地点 23232.47km 23232.485km
周期 844.704分钟 844.703分钟
每日圈数 1.704739 1.704742
Detailed Information
平衡模式:
三轴稳定
覆盖范围:
全球
运营商:
欧盟空间计划局
运营商所在国:
法国大都会
使用方式:
暂无
Satellite Introduction
伽利略定位系统(Galileo)是一个全球导航卫星系统,于2016年投入使用由欧盟通过ESA创建,由欧盟空间计划局(EUSPA)运营。该系统有两个地面操控站,并且在高纬度地区提供比其他系统更好的定位服务。该卫星仍在工作。
2D Orbit Map
3D Orbit Map
Orbit Altitude Analysis Chart
Orbit Inclination Analysis Chart
Orbit Comprehensive Analysis Chart
View Comprehensive Chart